054  
ASUS44 KSHV 190810  
RWRSHV  
 
WEATHER ROUNDUP FOR THE FOUR STATE AREA  
NATIONAL WEATHER SERVICE SHREVEPORT LA  
300 AM CDT FRI APR 19 2019  
 
NOTE: "FAIR" INDICATES FEW OR NO CLOUDS BELOW 12000 FEET  
WITH NO SIGNIFICANT WEATHER AND/OR S TO VISIBILITY
.  
 
!LAZ001-LAZ014-TXZ097-190900  
SHREVEPORT...MONROE...TEXARKANA RADIOS  
 
CITY SKY/WX TMP DP RH WIND PRES REMARKS
 
SHREVEPORT CLOUDY 52 51 97 NW6 29.83F  
MONROE N/A 51 47 86 NW10 29.79F  
NATCHITOCHES N/A 51 49 95 NW3 29.84F  
TEXARKANA CLEAR 50 47 89 NW7 29.83F  

 
 
!LAZ001-LAZ014-TXZ097-190900  
OTHER LOCATIONS...  
 
CITY SKY/WX TMP DP RH WIND PRES REMARKS
 
DOWNTOWN SHV MOCLDY 52 51 97 W7 29.84F  
BOSSIER CITY CLOUDY 50 50 100 CALM 29.83F FOG  
RUSTON N/A 48 46 91 NW3 29.85F  
LITTLE ROCK MOCLDY 49 46 90 NW3 29.79F  
EL DORADO N/A 47 47 100 CALM 29.82F  
JACKSON CLOUDY 53 49 86 NW9 29.69F  
NEW ORLEANS CLOUDY 62 57 83 W17G26 29.71F  
HOUSTON PTCLDY 59 50 72 W7 29.93F  
LUFKIN PTCLDY 53 47 79 W7 29.87F  
TYLER PTCLDY 54 45 71 NW9 29.89F  
DAL FT WORTH PTCLDY 54 44 69 NW15 29.95F  

 
 
!TXZ136-TXZ165-190900  
TYLER...LUFKIN RADIOS  
 
CITY SKY/WX TMP DP RH WIND PRES REMARKS
 
TYLER PTCLDY 54 45 71 NW9 29.89F  
GILMER LGT RAIN 55 46 72 W3 29.88F  
LONGVIEW CLOUDY 54 50 86 W12 29.86F  
LUFKIN PTCLDY 53 47 79 W7 29.87F  

 
 
!TXZ136-TXZ165-190900  
OTHER LOCATIONS...  
 
CITY SKY/WX TMP DP RH WIND PRES REMARKS
 
NACOGDOCHES MOCLDY 54 48 80 NW7 29.88S  
BEAUMONT N/A 59 49 69 NW9 29.86F  
HOUSTON PTCLDY 59 50 72 W7 29.93F  
COLLEGE STN MOCLDY 56 49 77 NW7 29.96F  
AUSTIN PTCLDY 57 45 64 W6 29.99F  
DAL FT WORTH PTCLDY 54 44 69 NW15 29.95F  
TEXARKANA CLEAR 50 47 89 NW7 29.83F  
SHREVEPORT CLOUDY 52 51 97 NW6 29.83F  
FORT POLK N/A 54 51 90 N7 29.83S  
LAKE CHARLES N/A 59 53 80 W7 29.84S  

 
 
 
CLICK HERE TO GO TO PREVIOUS BULLETINS.

The Nexlab LA Page
The Nexlab TX Page
The Nexlab AR Page
The Nexlab OK Page Main Text Page